This is the latest recevied weather packets stored in our database for station/object KK7PZE-13. If no packets are shown the sender has not sent any weather packets the latest 10 day(s).
| Time | Temp. | Humidity | Pressure | Rain* | Wind** | Luminosity | Snow |
|---|---|---|---|---|---|---|---|
| 1777428959 | 22.22° C | 14% | 1013.3 hPa | 0 mm | - | - | - |
| 1777428359 | 22.78° C | 13% | 1013.2 hPa | 0 mm | - | - | - |
| 1777427759 | 23.33° C | 13% | 1013.4 hPa | 0 mm | - | - | - |
| 1777427159 | 23.89° C | 13% | 1013.6 hPa | 0 mm | - | - | - |
| 1777426559 | 23.89° C | 13% | 1013.5 hPa | 0 mm | - | - | - |
| 1777425959 | 24.44° C | 13% | 1013.1 hPa | 0 mm | - | - | - |
| 1777425359 | 25° C | 13% | 1013.5 hPa | 0 mm | - | - | - |
| 1777424759 | 25° C | 13% | 1013.5 hPa | 0 mm | - | - | - |
| 1777424159 | 25° C | 13% | 1013.4 hPa | 0 mm | - | - | - |
| 1777423569 | 25° C | 14% | 1013.5 hPa | 0 mm | - | - | - |
| 1777422960 | 26.11° C | 14% | 1013.4 hPa | 0 mm | - | - | - |
| 1777422359 | 25.56° C | 14% | 1013.6 hPa | 0 mm | - | - | - |
| 1777421758 | 26.11° C | 14% | 1013.3 hPa | 0 mm | - | - | - |
| 1777421160 | 26.11° C | 14% | 1013.2 hPa | 0 mm | - | - | - |
| 1777420558 | 26.11° C | 14% | 1013.3 hPa | 0 mm | - | - | - |
| 1777419959 | 26.11° C | 13% | 1013.5 hPa | 0 mm | - | - | - |
| 1777419358 | 26.11° C | 13% | 1013.4 hPa | 0 mm | - | - | - |
| 1777418759 | 26.11° C | 12% | 1013.3 hPa | 0 mm | - | - | - |
| 1777418159 | 26.67° C | 13% | 1013.6 hPa | 0 mm | - | - | - |
| 1777417559 | 26.11° C | 13% | 1013.5 hPa | 0 mm | - | - | - |
| 1777416959 | 26.11° C | 13% | 1013.8 hPa | 0 mm | - | - | - |
| 1777416360 | 26.11° C | 14% | 1013.7 hPa | 0 mm | - | - | - |
| 1777415160 | 26.11° C | 13% | 1013.9 hPa | 0 mm | - | - | - |
| 1777414559 | 25.56° C | 13% | 1014 hPa | 0 mm | - | - | - |
| 1777413958 | 26.11° C | 13% | 1014 hPa | 0 mm | - | - | - |
* Rain latest hour (hover to see other rain measurements)
** Current wind speed in m/s (hover to see current wind gust speed)